GW0587 Weather Reports


Display with metric or nautical units.
time (UTC)temp
F
wind
direction
speed
MPH
gust
MPH
rain 1hr
in
rain 24hr
in
rain mn
in
humidity
%
barometer
mb
20260503221543 73 240 1.0 5.0 0.00 0.00 0.00 36 1016.8
20260503220045 73 0 0.0 7.0 0.00 0.00 0.00 35 1016.9
20260503214540 73 225 1.0 10.0 0.00 0.00 0.00 36 1017.1
20260503213048 73 277 1.0 5.0 0.00 0.00 0.00 35 1017.3
20260503211540 74 237 1.0 6.0 0.00 0.00 0.00 33 1017.6
20260503210047 74 0 1.0 9.0 0.00 0.00 0.00 33 1017.7
20260503204546 74 0 0.0 7.0 0.00 0.00 0.00 34 1017.9
20260503203044 74 0 1.0 7.0 0.00 0.00 0.00 33 1018.2
20260503201542 74 270 2.0 7.0 0.00 0.00 0.00 34 1018.4
20260503200052 74 144 2.0 8.0 0.00 0.00 0.00 33 1018.8
20260503194552 75 169 1.0 4.0 0.00 0.00 0.00 33 1019.3
20260503193046 74 335 1.0 4.0 0.00 0.00 0.00 35 1019.3
20260503191543 74 138 2.0 7.0 0.00 0.00 0.00 34 1019.6
20260503190042 73 0 2.0 7.0 0.00 0.00 0.00 34 1019.9
20260503184558 73 241 2.0 7.0 0.00 0.00 0.00 33 1020.1
20260503183047 73 205 2.0 5.0 0.00 0.00 0.00 37 1020.3
20260503181554 73 300 1.0 5.0 0.00 0.00 0.00 36 1020.6
20260503180040 72 315 1.0 8.0 0.00 0.00 0.00 37 1020.7
20260503174543 71 28 1.0 10.0 0.00 0.00 0.00 41 1020.9
20260503173043 71 0 3.0 9.0 0.00 0.00 0.00 38 1021.4
20260503171604 70 0 1.0 8.0 0.00 0.00 0.00 40 1021.5
20260503081542 47 0 0.0 0.0 0.00 0.00 0.00 81 1021.3
20260503071604 49 0 0.0 0.0 0.00 0.00 0.00 77 1021.1
20260503054557 52 0 0.0 0.0 0.00 0.00 0.00 70 1021.1
20260503053045 53 0 0.0 0.0 0.00 0.00 0.00 70 1021.0
20260503051541 53 0 0.0 0.0 0.00 0.00 0.00 68 1020.8
20260503050046 54 0 0.0 0.0 0.00 0.00 0.00 67 1020.7
20260503044550 54 0 0.0 0.0 0.00 0.00 0.00 66 1020.6
20260503043050 55 0 0.0 0.0 0.00 0.00 0.00 65 1020.5
20260503041548 56 0 0.0 3.0 0.00 0.00 0.00 63 1020.3
20260503040043 56 0 0.0 6.0 0.00 0.00 0.00 61 1020.4
20260503034542 57 348 0.0 4.0 0.00 0.00 0.00 60 1020.2
20260503033048 57 0 1.0 6.0 0.00 0.00 0.00 58 1020.3
20260503031547 58 352 0.0 9.0 0.00 0.00 0.00 56 1020.2
20260503030046 57 105 0.0 10.0 0.00 0.00 0.00 53 1019.9
20260503024544 58 0 0.0 2.0 0.00 0.00 0.00 53 1019.6
20260503023043 58 0 0.0 1.0 0.00 0.00 0.00 52 1019.5
20260503021555 59 0 0.0 2.0 0.00 0.00 0.00 52 1019.3
20260503020043 59 0 0.0 3.0 0.00 0.00 0.00 49 1019.1
20260503014540 60 0 0.0 1.0 0.00 0.00 0.00 48 1018.9
20260503013045 61 0 0.0 2.0 0.00 0.00 0.00 46 1018.7
20260503011558 62 0 0.0 4.0 0.00 0.00 0.00 44 1018.4
20260503010043 63 25 0.0 3.0 0.00 0.00 0.00 44 1018.4
20260503004541 64 0 0.0 4.0 0.00 0.00 0.00 42 1018.2
20260503003047 65 0 0.0 4.0 0.00 0.00 0.00 40 1018.1
20260503001541 65 5 0.0 8.0 0.00 0.00 0.00 39 1017.8
20260502234558 67 0 0.0 10.0 0.00 0.00 0.00 38 1017.5
20260502233042 67 272 2.0 12.0 0.00 0.00 0.00 37 1017.4
20260502231541 68 314 2.0 9.0 0.00 0.00 0.00 37 1017.3
20260502230049 68 43 2.0 10.0 0.00 0.00 0.00 37 1017.3
20260502224549 68 255 1.0 9.0 0.00 0.00 0.00 36 1017.4
20260502223038 68 235 2.0 12.0 0.00 0.00 0.00 36 1017.3